Time,TemperatureF,DewpointF,PressureIn,WindDirection,WindDirectionDegrees,WindSpeedMPH,WindSpeedGustMPH,Humidity,HourlyPrecipIn,Conditions,Clouds,dailyrainin,SoftwareType,DateUTC
2013-06-15 00:14:00,60.1,57.0,29.89,NE,47,0.0,4.0,88,0.00,,,0.00,weatherlink.com 1.10,2013-06-15 04:14:00,
2013-06-15 00:29:00,59.7,56.0,29.89,SE,146,0.0,2.0,88,0.00,,,0.00,weatherlink.com 1.10,2013-06-15 04:29:00,
2013-06-15 00:44:00,59.4,56.0,29.90,NE,43,0.0,3.0,89,0.00,,,0.00,weatherlink.com 1.10,2013-06-15 04:44:00,
2013-06-15 00:59:00,59.1,56.0,29.90,NE,51,0.0,2.0,89,0.00,,,0.00,weatherlink.com 1.10,2013-06-15 04:59:00,
2013-06-15 01:14:00,59.1,56.0,29.90,NNE,30,2.0,4.0,88,0.00,,,0.00,weatherlink.com 1.10,2013-06-15 05:14:00,
2013-06-15 01:29:00,59.2,56.0,29.90,NE,45,1.0,4.0,88,0.00,,,0.00,weatherlink.com 1.10,2013-06-15 05:29:00,
2013-06-15 01:44:00,59.0,56.0,29.90,NNE,23,0.0,2.0,88,0.00,,,0.00,weatherlink.com 1.10,2013-06-15 05:44:00,
2013-06-15 01:59:00,58.4,55.0,29.91,NNE,30,0.0,2.0,88,0.00,,,0.00,weatherlink.com 1.10,2013-06-15 05:59:00,
2013-06-15 02:14:00,58.2,55.0,29.92,NNE,31,0.0,3.0,88,0.00,,,0.00,weatherlink.com 1.10,2013-06-15 06:14:00,
2013-06-15 02:30:00,58.1,54.0,29.92,ESE,105,0.0,2.0,87,0.00,,,0.00,weatherlink.com 1.10,2013-06-15 06:30:00,
2013-06-15 02:45:00,58.3,55.0,29.92,ENE,61,1.0,3.0,87,0.00,,,0.00,weatherlink.com 1.10,2013-06-15 06:45:00,
2013-06-15 03:00:00,58.0,54.0,29.92,NE,43,0.0,2.0,87,0.00,,,0.00,weatherlink.com 1.10,2013-06-15 07:00:00,
2013-06-15 03:15:00,57.9,54.0,29.92,NNE,22,0.0,3.0,87,0.00,,,0.00,weatherlink.com 1.10,2013-06-15 07:15:00,
2013-06-15 03:30:00,57.6,54.0,29.92,NNE,30,0.0,5.0,87,0.00,,,0.00,weatherlink.com 1.10,2013-06-15 07:30:00,
2013-06-15 03:45:00,57.0,54.0,29.93,NNE,32,0.0,2.0,88,0.00,,,0.00,weatherlink.com 1.10,2013-06-15 07:45:00,
2013-06-15 04:00:00,56.1,53.0,29.93,NNE,32,0.0,1.0,90,0.00,,,0.00,weatherlink.com 1.10,2013-06-15 08:00:00,
2013-06-15 04:15:00,55.6,53.0,29.93,NE,42,0.0,3.0,90,0.00,,,0.00,weatherlink.com 1.10,2013-06-15 08:15:00,
2013-06-15 04:30:00,55.0,53.0,29.93,NE,42,0.0,2.0,91,0.00,,,0.00,weatherlink.com 1.10,2013-06-15 08:30:00,
2013-06-15 04:45:00,54.9,52.0,29.94,NE,53,0.0,2.0,91,0.00,,,0.00,weatherlink.com 1.10,2013-06-15 08:45:00,
2013-06-15 05:00:00,54.6,52.0,29.94,NE,53,0.0,1.0,91,0.00,,,0.00,weatherlink.com 1.10,2013-06-15 09:00:00,
2013-06-15 05:15:00,54.3,52.0,29.94,NE,53,0.0,1.0,92,0.00,,,0.00,weatherlink.com 1.10,2013-06-15 09:15:00,
2013-06-15 05:30:00,53.9,52.0,29.94,NE,51,0.0,0.0,92,0.00,,,0.00,weatherlink.com 1.10,2013-06-15 09:30:00,
2013-06-15 05:45:00,53.2,51.0,29.94,NE,51,1.0,2.0,93,0.00,,,0.00,weatherlink.com 1.10,2013-06-15 09:45:00,
2013-06-15 06:00:00,53.3,51.0,29.94,NE,48,0.0,2.0,93,0.00,,,0.00,weatherlink.com 1.10,2013-06-15 10:00:00,
2013-06-15 06:15:00,52.9,51.0,29.95,NE,48,0.0,0.0,94,0.00,,,0.00,weatherlink.com 1.10,2013-06-15 10:15:00,
2013-06-15 06:30:00,53.4,52.0,29.95,NNE,30,0.0,3.0,94,0.00,,,0.00,weatherlink.com 1.10,2013-06-15 10:30:00,
2013-06-15 06:45:00,54.1,52.0,29.95,NNE,27,0.0,0.0,92,0.00,,,0.00,weatherlink.com 1.10,2013-06-15 10:45:00,
2013-06-15 07:00:00,54.9,52.0,29.96,NNE,32,0.0,3.0,91,0.00,,,0.00,weatherlink.com 1.10,2013-06-15 11:00:00,
2013-06-15 07:15:00,56.5,53.0,29.96,NE,52,0.0,3.0,88,0.00,,,0.00,weatherlink.com 1.10,2013-06-15 11:15:00,
2013-06-15 07:30:00,59.1,54.0,29.96,NE,49,1.0,3.0,83,0.00,,,0.00,weatherlink.com 1.10,2013-06-15 11:30:00,
2013-06-15 07:45:00,61.1,54.0,29.97,NE,51,0.0,2.0,77,0.00,,,0.00,weatherlink.com 1.10,2013-06-15 11:45:00,
2013-06-15 08:00:00,62.7,54.0,29.97,NE,51,1.0,4.0,72,0.00,,,0.00,weatherlink.com 1.10,2013-06-15 12:00:00,
2013-06-15 08:15:00,64.2,55.0,29.98,NNE,19,0.0,4.0,71,0.00,,,0.00,weatherlink.com 1.10,2013-06-15 12:15:00,
2013-06-15 08:30:00,65.3,54.0,29.98,North,5,0.0,3.0,67,0.00,,,0.00,weatherlink.com 1.10,2013-06-15 12:30:00,
2013-06-15 08:45:00,66.0,53.0,29.99,NE,40,1.0,5.0,64,0.00,,,0.00,weatherlink.com 1.10,2013-06-15 12:45:00,
2013-06-15 09:00:00,66.7,54.0,29.99,NE,49,3.0,4.0,63,0.00,,,0.00,weatherlink.com 1.10,2013-06-15 13:00:00,
2013-06-15 09:16:00,67.6,53.0,30.00,NNE,14,1.0,4.0,59,0.00,,,0.00,weatherlink.com 1.10,2013-06-15 13:16:00,
2013-06-15 09:31:00,68.3,54.0,30.00,NW,311,1.0,5.0,61,0.00,,,0.00,weatherlink.com 1.10,2013-06-15 13:31:00,
2013-06-15 09:46:00,69.2,53.0,29.99,South,184,3.0,5.0,56,0.00,,,0.00,weatherlink.com 1.10,2013-06-15 13:46:00,
2013-06-15 10:01:00,69.7,54.0,29.98,NNE,29,0.0,5.0,58,0.00,,,0.00,weatherlink.com 1.10,2013-06-15 14:01:00,
2013-06-15 10:16:00,70.5,50.0,29.98,SSW,199,0.0,5.0,49,0.00,,,0.00,weatherlink.com 1.10,2013-06-15 14:16:00,
2013-06-15 10:31:00,71.2,50.0,29.98,SSE,166,2.0,5.0,47,0.00,,,0.00,weatherlink.com 1.10,2013-06-15 14:31:00,
2013-06-15 10:46:00,71.8,50.0,29.98,WNW,296,0.0,6.0,47,0.00,,,0.00,weatherlink.com 1.10,2013-06-15 14:46:00,
2013-06-15 11:01:00,72.5,52.0,29.98,SSW,207,2.0,8.0,48,0.00,,,0.00,weatherlink.com 1.10,2013-06-15 15:01:00,
2013-06-15 11:16:00,72.3,54.0,29.99,East,98,0.0,9.0,53,0.00,,,0.00,weatherlink.com 1.10,2013-06-15 15:16:00,
2013-06-15 11:31:00,72.8,51.0,29.99,SSW,197,1.0,7.0,47,0.00,,,0.00,weatherlink.com 1.10,2013-06-15 15:31:00,
2013-06-15 11:46:00,72.7,50.0,29.98,SW,236,0.0,7.0,45,0.00,,,0.00,weatherlink.com 1.10,2013-06-15 15:46:00,
2013-06-15 12:01:00,73.4,51.0,29.98,WNW,291,0.0,8.0,46,0.00,,,0.00,weatherlink.com 1.10,2013-06-15 16:01:00,
2013-06-15 12:16:00,74.5,50.0,29.98,SW,217,7.0,10.0,43,0.00,,,0.00,weatherlink.com 1.10,2013-06-15 16:16:00,
2013-06-15 12:31:00,74.6,54.0,29.98,WSW,240,1.0,9.0,48,0.00,,,0.00,weatherlink.com 1.10,2013-06-15 16:31:00,
2013-06-15 12:46:00,75.6,52.0,29.97,SW,232,6.0,9.0,44,0.00,,,0.00,weatherlink.com 1.10,2013-06-15 16:46:00,
2013-06-15 13:01:00,75.1,50.0,29.97,SW,225,6.0,9.0,42,0.00,,,0.00,weatherlink.com 1.10,2013-06-15 17:01:00,
2013-06-15 13:16:00,75.2,49.0,29.97,SSW,208,4.0,8.0,40,0.00,,,0.00,weatherlink.com 1.10,2013-06-15 17:16:00,
2013-06-15 13:31:00,75.8,53.0,29.96,SSW,194,2.0,7.0,46,0.00,,,0.00,weatherlink.com 1.10,2013-06-15 17:31:00,
2013-06-15 13:46:00,75.8,52.0,29.95,ENE,73,1.0,5.0,44,0.00,,,0.00,weatherlink.com 1.10,2013-06-15 17:46:00,
2013-06-15 14:01:00,76.6,54.0,29.95,South,188,1.0,6.0,45,0.00,,,0.00,weatherlink.com 1.10,2013-06-15 18:01:00,
2013-06-15 14:16:00,76.6,52.0,29.94,SE,132,1.0,5.0,42,0.00,,,0.00,weatherlink.com 1.10,2013-06-15 18:16:00,
2013-06-15 14:31:00,76.7,49.0,29.94,SSW,213,10.0,10.0,38,0.00,,,0.00,weatherlink.com 1.10,2013-06-15 18:31:00,
2013-06-15 14:46:00,76.9,54.0,29.94,SSW,205,1.0,11.0,45,0.00,,,0.00,weatherlink.com 1.10,2013-06-15 18:46:00,
2013-06-15 15:01:00,77.7,50.0,29.94,NE,46,0.0,7.0,38,0.00,,,0.00,weatherlink.com 1.10,2013-06-15 19:01:00,
2013-06-15 15:16:00,77.4,50.0,29.93,SW,220,1.0,11.0,39,0.00,,,0.00,weatherlink.com 1.10,2013-06-15 19:16:00,
2013-06-15 15:31:00,77.1,50.0,29.92,SW,215,0.0,8.0,39,0.00,,,0.00,weatherlink.com 1.10,2013-06-15 19:31:00,
2013-06-15 15:46:00,77.5,48.0,29.92,NE,42,3.0,7.0,36,0.00,,,0.00,weatherlink.com 1.10,2013-06-15 19:46:00,
2013-06-15 16:01:00,77.7,51.0,29.92,SSE,165,1.0,5.0,40,0.00,,,0.00,weatherlink.com 1.10,2013-06-15 20:01:00,
2013-06-15 16:16:00,78.4,53.0,29.91,East,97,0.0,6.0,42,0.00,,,0.00,weatherlink.com 1.10,2013-06-15 20:16:00,
2013-06-15 16:31:00,78.2,50.0,29.92,WSW,237,1.0,7.0,38,0.00,,,0.00,weatherlink.com 1.10,2013-06-15 20:31:00,
2013-06-15 16:46:00,77.9,49.0,29.91,NE,43,1.0,5.0,36,0.00,,,0.00,weatherlink.com 1.10,2013-06-15 20:46:00,
2013-06-15 17:01:00,77.8,49.0,29.91,SSW,208,2.0,6.0,36,0.00,,,0.00,weatherlink.com 1.10,2013-06-15 21:01:00,
2013-06-15 17:16:00,76.8,49.0,29.91,SSW,192,0.0,3.0,38,0.00,,,0.00,weatherlink.com 1.10,2013-06-15 21:16:00,
2013-06-15 17:31:00,75.7,50.0,29.91,ESE,115,1.0,5.0,41,0.00,,,0.00,weatherlink.com 1.10,2013-06-15 21:31:00,
2013-06-15 17:46:00,75.1,49.0,29.91,ENE,77,0.0,3.0,40,0.00,,,0.00,weatherlink.com 1.10,2013-06-15 21:46:00,
2013-06-15 18:01:00,74.6,48.0,29.91,NE,37,0.0,5.0,39,0.00,,,0.00,weatherlink.com 1.10,2013-06-15 22:01:00,
2013-06-15 18:16:00,74.1,49.0,29.91,ESE,122,0.0,4.0,42,0.00,,,0.00,weatherlink.com 1.10,2013-06-15 22:16:00,
2013-06-15 18:31:00,74.0,49.0,29.91,East,84,1.0,3.0,42,0.00,,,0.00,weatherlink.com 1.10,2013-06-15 22:31:00,
2013-06-15 18:47:00,73.3,51.0,29.91,East,84,2.0,5.0,45,0.00,,,0.00,weatherlink.com 1.10,2013-06-15 22:47:00,
2013-06-15 19:01:00,72.3,50.0,29.91,West,280,0.0,5.0,45,0.00,,,0.00,weatherlink.com 1.10,2013-06-15 23:01:00,
2013-06-15 19:16:00,71.5,50.0,29.92,East,101,1.0,3.0,46,0.00,,,0.00,weatherlink.com 1.10,2013-06-15 23:16:00,
2013-06-15 19:31:00,70.8,48.0,29.93,ESE,109,0.0,2.0,44,0.00,,,0.00,weatherlink.com 1.10,2013-06-15 23:31:00,
2013-06-15 19:46:00,69.7,45.0,29.93,NE,50,1.0,3.0,41,0.00,,,0.00,weatherlink.com 1.10,2013-06-15 23:46:00,
2013-06-15 20:01:00,68.3,46.0,29.93,ENE,58,0.0,1.0,45,0.00,,,0.00,weatherlink.com 1.10,2013-06-16 00:01:00,
2013-06-15 20:16:00,66.5,47.0,29.93,ENE,58,0.0,1.0,49,0.00,,,0.00,weatherlink.com 1.10,2013-06-16 00:16:00,
2013-06-15 20:31:00,65.3,47.0,29.93,ENE,58,0.0,1.0,52,0.00,,,0.00,weatherlink.com 1.10,2013-06-16 00:31:00,
2013-06-15 20:46:00,64.2,48.0,29.94,ENE,58,0.0,2.0,55,0.00,,,0.00,weatherlink.com 1.10,2013-06-16 00:46:00,
2013-06-15 21:01:00,63.2,47.0,29.94,ENE,58,0.0,0.0,55,0.00,,,0.00,weatherlink.com 1.10,2013-06-16 01:01:00,
2013-06-15 21:16:00,61.3,47.0,29.95,ENE,58,0.0,0.0,60,0.00,,,0.00,weatherlink.com 1.10,2013-06-16 01:16:00,
2013-06-15 21:31:00,59.5,48.0,29.95,ENE,58,0.0,1.0,66,0.00,,,0.00,weatherlink.com 1.10,2013-06-16 01:31:00,
2013-06-15 21:47:00,58.5,48.0,29.97,ENE,58,0.0,0.0,68,0.00,,,0.00,weatherlink.com 1.10,2013-06-16 01:47:00,
2013-06-15 22:02:00,57.3,49.0,29.98,ENE,58,0.0,0.0,73,0.00,,,0.00,weatherlink.com 1.10,2013-06-16 02:02:00,
2013-06-15 22:17:00,56.4,48.0,29.97,ENE,58,0.0,0.0,73,0.00,,,0.00,weatherlink.com 1.10,2013-06-16 02:17:00,
2013-06-15 22:32:00,55.8,48.0,29.97,ENE,58,0.0,0.0,76,0.00,,,0.00,weatherlink.com 1.10,2013-06-16 02:32:00,
2013-06-15 22:47:00,55.0,49.0,29.98,ENE,58,0.0,0.0,79,0.00,,,0.00,weatherlink.com 1.10,2013-06-16 02:47:00,
2013-06-15 23:02:00,54.4,49.0,29.98,ENE,58,0.0,0.0,82,0.00,,,0.00,weatherlink.com 1.10,2013-06-16 03:02:00,
2013-06-15 23:17:00,53.5,49.0,29.98,ENE,58,0.0,0.0,85,0.00,,,0.00,weatherlink.com 1.10,2013-06-16 03:17:00,
2013-06-15 23:32:00,52.9,49.0,29.98,ENE,58,0.0,0.0,87,0.00,,,0.00,weatherlink.com 1.10,2013-06-16 03:32:00,
2013-06-15 23:47:00,52.5,49.0,29.98,ENE,58,0.0,0.0,89,0.00,,,0.00,weatherlink.com 1.10,2013-06-16 03:47:00,